Voltar ao catálogo

COSMOS 2251 DEB

AtivoLEO
NORAD 37498·DEBRIS·🇷🇺 Russia

Lançado Jun 16, 1993 de Plesetsk Cosmodrome

Loading…

Próximas Passagens (próximas 24 horas)

TLE

EnvelhecendoSource: Space-Track

Época: Sep 10, 2026, 01:35 UTC

1 37498U 93036BMB 26253.06601117  .00002252  00000-0  51133-3 0  9999
2 37498  74.0366  29.5684 0011416  28.7174 331.4617 14.56579209693039

Acompanhe COSMOS 2251 DEB em tempo real com AllMySat

Download on the App Store